World > North America > United States > Utah

Hourly Camp Williams, UT Regional Weather

Feedback E-mail the Weather

Quick WX

Camp Williams, UT Weather Maps

°F °C°F °C
Camp Williams Weather Map
UTC Time: 6/26/2022, 08:37
Your Time:

Camp Williams, UT Regional Weather

Expires:202206260900;;208179
ASUS45 KSLC 260810
RWRUT 

UTAH REGIONAL WEATHER ROUNDUP
NATIONAL WEATHER SERVICE SALT LAKE CITY UT
200 AM MDT SUN JUN 26 2022


UTZ101>105-107>111-260900-

NORTHERN UTAH
  
CITY           SKY/WX    TMP DP  RH WIND       PRES   REMARKS
BRIGHAM CITY   CLEAR     64  38  38 MISG      30.23R                  
HILL AFB       CLEAR     63  35  35 SE15      30.22R                  
LOGAN          CLEAR     59  40  49 S6        30.26R                  
OGDEN          CLEAR     64  42  44 NW6       30.21R                  
SALT LAKE CITY CLEAR     69  41  36 N6        30.19S                  
TOOELE VALLEY  PTCLDY    59  37  44 SE6       30.21S                  
WENDOVER       CLEAR     76  26  15 N10       30.21R                  
HEBER CITY       N/A     50  39  66 CALM      30.30R                  
WEST JORDAN    CLEAR     65  42  42 CALM      30.23R                  

$$


SKY/WX - Weather  TMP - Temperature  DP - Dew Point  RH - Humidity
WIND - Wind Direction/Speed PRES - Barometric Pressure VSB - Visibility
WCI - Wind Chill Index E13G22 Wind - East Wind 13 mph/Gusts of 22 mph

Trending Headlines

Camp Williams Radar Loop



Camp Williams Quick Facts


National Two Day Weather Forecast


E-mail the Camp Williams Weather Forecast

Voice your opinion or tell us about page issues...